Dewpoint
36 33 31 31 31 29 28 26 26 21 21 23 22 24 25 25 26 26 25 28 31 32 31 31 30 31 31 32 33 35 36 38 39 41 41 44 45 47
34 31 31 32 31 30 26 27 26 24 21 22 21 22 23 21 24 24 25 27 27 31 31 33 32 31 31 32 35 35 36 37 39 40 41 43 45 46
33 32 30 31 30 28 28 26 23 22 19 20 21 22 21 22 23 24 24 22 24 28 31 32 32 33 34 35 35 36 36 35 38 40 41 42 44 46
31 30 29 28 27 26 23 20 20 20 20 18 19 19 20 21 21 22 21 21 23 26 30 31 32 33 36 36 37 37 37 37 39 39 40 42 43 44
30 29 29 27 22 21 19 18 19 18 20 19 18 19 19 20 19 21 21 23 22 26 26 29 31 32 33 35 37 37 37 38 38 39 40 40 41 41
29 28 26 21 19 18 17 17 17 19 19 18 17 17 18 19 21 19 22 25 24 23 26 29 29 30 32 35 37 36 37 37 37 37 40 40 40 42
25 23 22 22 24 20 17 17 19 19 19 18 17 17 18 18 19 23 21 21 19 22 24 23 23 27 30 33 36 37 36 36 36 37 38 40 40 40
23 22 20 22 25 25 23 23 21 19 19 19 18 17 18 20 25 22 19 16 14 21 21 20 23 21 25 29 36 36 35 35 36 38 38 40 38 39
22 20 19 21 21 19 20 20 20 21 21 20 17 16 16 18 19 18 18 19 18 19 21 18 20 21 24 25 31 34 35 35 36 37 37 39 38 37
22 21 20 19 20 19 19 18 18 18 17 16 15 15 16 18 20 20 20 20 21 22 21 18 21 22 25 27 29 32 36 35 35 36 37 38 38 37
24 23 22 18 22 19 19 18 18 18 18 20 19 22 24 25 24 25 24 24 19 19 22 21 22 25 25 27 28 30 34 35 35 34 36 37 38 36
24 22 23 20 19 19 20 18 17 16 18 17 18 19 22 23 25 24 24 24 23 21 22 23 22 24 23 24 25 26 27 34 34 35 35 36 38 37
24 23 23 22 22 23 22 20 19 19 20 19 18 19 20 22 22 23 24 25 25 25 25 25 24 23 25 25 25 28 30 32 33 34 34 34 37 38
23 24 24 25 24 24 23 23 22 22 14 16 17 16 20 20 21 23 24 25 25 26 31 28 24 23 20 22 25 28 31 27 32 34 33 34 34 36
23 23 26 26 25 25 26 25 22 18 14 9 13 15 17 20 22 23 23 23 25 26 26 30 26 25 23 24 23 26 27 30 32 33 32 32 32 32
22 23 23 24 20 21 21 22 22 20 18 13 13 15 18 19 19 21 20 23 23 22 25 29 27 25 21 22 24 25 26 26 31 32 33 32 32 32
18 18 19 18 19 21 20 20 20 19 16 12 11 12 16 18 18 20 20 23 20 20 23 25 29 27 24 24 20 23 23 24 29 32 31 32 32 32
25 18 13 11 14 19 18 17 15 16 16 15 10 13 13 13 17 18 20 21 20 20 20 24 24 25 27 25 26 24 21 22 24 27 30 28 30 31
16 15 12 13 15 20 20 18 15 14 14 14 11 9 11 14 14 17 18 18 18 18 20 23 22 18 17 18 27 29 20 25 27 24 24 25 25 30
19 18 17 18 19 21 20 19 15 12 12 12 7 4 5 10 10 13 16 13 16 18 17 18 20 21 17 14 20 24 29 21 23 27 20 22 27 29
22 22 21 21 21 22 21 18 13 9 7 4 4 6 6 9 8 13 11 14 14 16 14 15 17 22 25 22 19 23 20 28 28 28 27 22 21 21
24 23 24 24 24 24 24 20 16 13 10 7 6 4 2 4 5 6 8 7 15 16 15 14 17 21 27 26 24 20 20 18 24 27 28 29 25 18
27 25 25 25 24 22 24 22 21 18 16 13 11 6 -1 6 6 7 7 13 13 15 14 13 15 19 24 23 24 25 21 21 22 20 19 27 28 29
Lifted_Index
11 11 11 11 11 11 11 10 9 8 8 7 7 7 7 7 7 8 8 8 9 9 9 9 9 9 9 9 8 8 8 8 9 9 10 11 11 10
11 11 11 11 11 11 10 9 8 8 8 8 7 7 8 8 8 9 9 9 9 9 9 9 9 9 9 8 8 8 8 8 8 8 8 9 9 10
11 11 11 11 11 10 8 8 7 8 8 9 9 9 9 10 10 10 10 10 10 9 9 8 8 8 8 7 7 7 7 7 7 7 6 7 7 8
11 11 11 11 10 9 7 7 8 9 9 10 10 10 11 11 11 11 11 10 10 9 9 8 8 7 7 7 7 7 7 7 7 6 6 6 6 7
11 12 11 11 10 8 7 8 8 9 10 11 11 11 11 11 11 11 11 10 10 9 9 9 8 8 7 7 6 6 6 6 6 6 6 5 5 6
11 11 11 10 9 8 8 8 9 10 11 11 11 11 11 11 11 11 11 10 10 10 10 10 9 9 8 8 7 6 6 6 6 6 6 5 5 5
11 11 10 9 9 8 8 9 10 10 11 11 11 11 11 11 11 11 11 11 11 11 11 11 11 10 9 8 7 7 6 6 6 6 5 5 4 5
11 10 10 9 9 9 9 9 10 11 12 12 11 11 11 11 11 11 11 11 11 12 12 12 11 11 10 9 7 7 6 7 6 6 5 4 4 4
10 9 9 9 9 9 9 9 10 11 12 12 12 11 11 11 11 11 11 11 11 12 12 11 11 10 8 7 6 6 5 6 6 5 5 4 3 3
9 9 8 8 8 8 9 9 10 11 12 12 12 12 12 12 11 11 11 11 11 11 10 9 9 7 6 5 5 4 4 4 5 5 4 3 3 3
8 8 8 8 8 8 9 9 10 11 11 12 12 12 12 11 11 11 10 10 10 9 9 8 7 6 4 4 3 3 3 4 5 5 4 3 3 3
8 8 8 8 8 9 9 10 10 10 10 11 11 12 11 11 11 11 10 10 9 8 7 6 6 5 4 3 3 2 3 3 4 4 4 3 3 3
7 7 8 8 8 9 9 10 10 10 10 10 11 11 11 10 10 10 10 10 9 7 6 6 6 5 4 3 3 3 3 3 4 4 3 3 3 3
6 7 7 8 8 9 9 9 10 10 10 10 10 10 10 10 10 10 10 9 8 7 6 6 6 5 4 4 3 3 3 3 3 3 3 3 3 3
6 6 7 7 8 8 8 9 9 9 9 10 10 10 10 10 10 10 10 9 8 7 6 5 5 5 5 4 4 4 4 3 3 3 3 3 3 2
6 6 7 7 7 8 8 8 8 8 9 9 9 10 10 10 10 10 10 9 8 6 5 5 5 5 5 5 5 5 5 4 4 3 3 3 3 3
5 6 6 7 7 7 7 7 8 8 8 9 9 9 9 10 10 10 10 9 8 6 6 5 5 5 5 5 5 6 6 5 5 4 4 4 3 3
5 5 6 6 7 7 7 7 7 7 7 8 9 9 9 9 9 10 10 9 8 7 6 6 5 5 4 5 5 5 6 6 5 5 5 4 4 4
5 5 6 6 7 7 7 7 7 7 7 7 8 8 8 8 9 9 10 10 9 8 7 7 6 5 4 4 5 5 5 6 6 5 5 5 5 5
5 5 5 6 6 7 7 7 7 7 7 7 8 8 8 8 8 8 9 9 9 9 8 8 7 6 5 5 5 5 5 5 6 5 5 6 6 6
5 5 5 6 6 6 6 6 6 6 7 7 7 8 8 8 8 8 8 9 10 10 9 9 8 7 6 6 5 5 5 6 6 6 6 6 6 6
5 4 4 5 5 5 5 5 6 6 6 6 7 7 7 7 7 8 8 8 9 10 10 9 9 8 7 6 5 5 5 6 6 6 6 6 6 6
4 4 4 4 5 5 5 5 5 6 6 6 6 7 7 7 7 7 8 8 9 10 10 10 9 8 7 6 6 5 6 6 6 6 7 7 7 7